Tracking 31027 objects as of 19-Jul-2025
HD Live streaming from Space Station
objects crossing your sky now

ATLAS 5 CENTAUR DEB

Track ATLAS 5 CENTAUR DEB now!


NORAD ID: 44642
Int'l Code: 2018-079C
Perigee: 8,675.3 km
Apogee: 34,754.5 km
Inclination: 12.8 °
Period: 780.7 minutes
Semi major axis: 28085 km
RCS: Unknown
Launch date: October 17, 2018
Source: United States (US)
Launch site: AIR FORCE EASTERN TEST RANGE (AFETR)

Note: This is SATELLITE DEBRIS
Your satellite tracking list
FENGYUN 1C DEB
Track 1 satellite(s)




NASA's NSSDC Master Catalog

Two Line Element Set (TLE):
1 44642U 18079C   25198.16069299 -.00000109  00000-0  00000+0 0  9992
2 44642  12.8468  57.0056 4642762 276.4635  34.4318  1.84446829 45466
Source of the keplerian elements: AFSPC